Charter Quote
Worldwide +1-877-727-2538 Call
Select Language Lang
SAFETY RELIABILITY EXPERIENCE

Plymouth Muni Airport (KPYM) - Jet Charter Services

AIRPORT INFORMATION
ICAOKPYM
IATAPYM
LOCATIONPlymouth, MA, United States
FACILITY TYPEAIRPORT

At Paramount Business Jets you can hire chartered private jets to and from Plymouth Muni Airport with as little as 4 hours of notice. All flights booked via Paramount Business Jets are operated by certified direct air carriers that meet and exceed the FAA part 135 and 121 protocol or a foreign equivalent safety authority. Furthermore, Paramount Business Jets subscribes to ARGUS for their third party safety checks of operators, aircraft, and crews prior each and every flight to and from Plymouth Muni Airport and worldwide.

  • Quote a trip using Plymouth Muni Airport or call us 24/7 - 365 days a year at +1-877-727-2538.
Questions? Call +1-877-727-2538

METAR Weather Data at Plymouth Muni Airport, KPYM, PYM

STATIONKPYM
OBSERVEDMon Apr 22, 04:27 UTC
NOWMon Apr 22, 04:36 UTC
AGE9 min ago
WINDSSE at 3 mph
VISIBILITY1/2 mile
CONDITIONSfog
CLOUDSovercast
TEMP52°F (11°C)
DEWPT48°F (9°C)
HUMIDITY88%
BAROMETER1020 hPa (30.12 in Hg)
METARKPYM 220427Z AUTO 16003KT 1/2SM FG OVC002 11/09 A3012 RMK AO2 T01060094

Call us on +1-877-727-2538 (24 Hours) to Hire a Private Jet or Get a Quick Quote.

Find Airports Near any Location

Processing
...